Location: Chamerau
(49.1969°N, 12.7525°E)
Time: 06:06:48
(UTC+00:00)

Meteor 2-19 Rocket - Pass Details

Date: 18 September 2020
Orbit: 935 x 959 km, 82.5° (Epoch: 27 October)

Event Time Altitude Azimuth Distance (km) Brightness Sun altitude
Rises 19:56:49 0° 351° (N) 3,641 8.1 -25.5°
Reaches altitude 10° 19:59:22 10° 355° (N) 2,688 7.3 -25.8°
Maximum altitude 20:05:28 65° 77° (ENE) 1,042 4.4 -26.6°
Enters shadow 20:05:39 64° 87° (E) 1,044 4.4 -26.6°
